Location: Ballingbuur
(53.0000°N, 5.7667°E)
Time: 07:07:39
(UTC+00:00)

Cosmos 2074 Rocket - Pass Details

Date: 29 November 2020
Orbit: 968 x 985 km, 82.9° (Epoch: 23 January)

Event Time Altitude Azimuth Distance (km) Brightness Sun altitude
Rises 05:29:59 0° 199° (SSW) 3,650 7.0 -16.4°
Reaches altitude 10° 05:32:31 10° 202° (SSW) 2,706 6.3 -16.0°
Maximum altitude 05:38:40 65° 284° (WNW) 1,061 3.9 -15.1°
Drops below altitude 10° 05:44:52 10° 7° (N) 2,725 6.2 -14.2°
Sets 05:47:26 0° 10° (N) 3,678 6.9 -13.9°
